Weather History for KHAI - September, 2013

Change the Weather History Date:

Friday, September 27, 2013

  Actual Average (KAZO) Record (KAZO)
Temperature  
Mean Temperature 61 °F 58 °F  
Max Temperature 79 °F 68 °F - ()
Min Temperature 43 °F 47 °F - ()
Degree Days  
Heating Degree Days 4 8  
Month to date heating degree days 103  
Since 1 July heating degree days 119  
Cooling Degree Days 0 1  
Month to date cooling degree days 55  
Year to date cooling degree days 666  
Growing Degree Days 11 (Base 50)    
Moisture  
Dew Point 49 °F    
Average Humidity 67    
Maximum Humidity 93    
Minimum Humidity 35    
Precipitation  
Precipitation 0.00 in 0.12 in - ()
Month to date precipitation 3.52  
Year to date precipitation 27.11  
Sea Level Pressure  
Sea Level Pressure 30.17 in    
Wind  
Wind Speed 3 mph (ESE)    
Max Wind Speed 10 mph    
Max Gust Speed -    
Visibility 9 miles    
Events      
T = Trace of Precipitation, MM = Missing Value Source: NWS Daily Summary

Daily Weather History Graph

Daily Weather History Graph

Search for Another Location

Airport or City:

Trip Planner

Search our weather history database for the weather conditions in past years. The results will help you decide how hot, cold, wet, or windy it might be!

Date:

Astronomy

Sep. 27, 2013 Rise Set
Actual Time 7:35 AM EDT 7:30 PM EDT
Civil Twilight 7:07 AM EDT 7:58 PM EDT
Nautical Twilight 6:35 AM EDT 8:30 PM EDT
Astronomical Twilight 6:02 AM EDT 9:03 PM EDT
Moon 12:25 AM EDT (9/27) 3:13 PM EDT (9/27)
Length of Visible Light 12h 50m
Length of Day
11h 55m
Last Quarter, 45% of the Moon is Illuminated
Sep 27
Last Quarter
Oct 4
New
Oct 11
First Quarter
Oct 18
Full
Oct 26
Last Quarter

Hourly Weather History & Observations

Time (EDT) Temp. Dew Point Humidity Pressure Visibility Wind Dir Wind Speed Gust Speed Precip Events Conditions
12:15 AM 51.8 °F 47.7 °F 86% 30.13 in 10.0 mi Calm Calm - N/A   Clear
12:35 AM 51.8 °F 47.8 °F 86% 30.13 in 10.0 mi Calm Calm - N/A   Clear
12:55 AM 51.3 °F 47.7 °F 87% 30.14 in 10.0 mi Calm Calm - N/A   Clear
1:15 AM 50.9 °F 47.5 °F 88% 30.14 in 10.0 mi Calm Calm - N/A   Clear
1:35 AM 49.1 °F 46.2 °F 90% 30.14 in 10.0 mi Calm Calm - N/A   Clear
1:55 AM 47.3 °F 44.6 °F 90% 30.15 in 5.0 mi Calm Calm - N/A   Clear
2:15 AM 47.8 °F 45.5 °F 92% 30.15 in 10.0 mi Calm Calm - N/A   Clear
2:35 AM 48.2 °F 45.5 °F 90% 30.15 in 10.0 mi Calm Calm - N/A   Clear
2:54 AM 47.3 °F 45.0 °F 92% 30.15 in 5.0 mi Calm Calm - N/A   Clear
3:15 AM 47.7 °F 45.3 °F 92% 30.16 in 10.0 mi Calm Calm - N/A   Clear
3:34 AM 46.4 °F 43.9 °F 91% 30.16 in 7.0 mi Calm Calm - N/A   Clear
3:55 AM 46.8 °F 44.6 °F 92% 30.16 in 10.0 mi Calm Calm - N/A   Clear
4:15 AM 45.9 °F 43.7 °F 92% 30.16 in 3.0 mi Calm Calm - N/A   Clear
4:34 AM 45.3 °F 43.2 °F 92% 30.17 in 7.0 mi Calm Calm - N/A   Clear
4:55 AM 45.0 °F 42.8 °F 92% 30.17 in 5.0 mi Calm Calm - N/A   Clear
5:15 AM 45.1 °F 43.2 °F 93% 30.17 in - Calm Calm - N/A   Unknown
5:35 AM 44.8 °F 42.3 °F 91% 30.18 in 10.0 mi Calm Calm - N/A   Clear
5:55 AM 44.8 °F 42.8 °F 93% 30.19 in 4.0 mi Calm Calm - N/A   Clear
6:14 AM 44.1 °F 42.3 °F 93% 30.19 in 7.0 mi Calm Calm - N/A   Clear
6:35 AM 44.4 °F 42.6 °F 93% 30.19 in 10.0 mi Calm Calm - N/A   Clear
6:55 AM 43.7 °F 41.7 °F 93% 30.20 in 10.0 mi Calm Calm - N/A   Clear
7:14 AM 43.9 °F 42.1 °F 93% 30.21 in 7.0 mi Calm Calm - N/A   Clear
7:35 AM 44.1 °F 41.7 °F 91% 30.21 in 10.0 mi Calm Calm - N/A   Clear
7:55 AM 43.7 °F 41.4 °F 91% 30.21 in 10.0 mi Calm Calm - N/A   Clear
8:14 AM 44.6 °F 42.8 °F 93% 30.21 in 10.0 mi Calm Calm - N/A   Clear
8:35 AM 47.5 °F 45.3 °F 92% 30.22 in 10.0 mi WNW 3.5 mph - N/A   Clear
8:55 AM 50.0 °F 47.8 °F 92% 30.22 in 10.0 mi Calm Calm - N/A   Clear
9:14 AM 52.9 °F 49.6 °F 89% 30.22 in 10.0 mi Calm Calm - N/A   Clear
9:35 AM 56.1 °F 51.6 °F 85% 30.22 in 10.0 mi Calm Calm - N/A   Clear
9:55 AM 59.2 °F 52.9 °F 80% 30.23 in 10.0 mi ESE 4.6 mph - N/A   Clear
10:14 AM 61.3 °F 53.6 °F 76% 30.23 in 10.0 mi ESE 3.5 mph - N/A   Clear
10:35 AM 64.4 °F 55.0 °F 72% 30.23 in 10.0 mi SE 4.6 mph - N/A   Clear
10:55 AM 67.1 °F 55.2 °F 66% 30.23 in 10.0 mi ESE 6.9 mph - N/A   Clear
11:15 AM 69.1 °F 54.5 °F 60% 30.22 in 10.0 mi SE 6.9 mph - N/A   Clear
11:35 AM 70.5 °F 52.9 °F 54% 30.22 in 10.0 mi SE 9.2 mph - N/A   Clear
11:54 AM 71.4 °F 52.5 °F 51% 30.22 in 10.0 mi SE 6.9 mph - N/A   Clear
12:15 PM 73.0 °F 51.4 °F 47% 30.22 in 10.0 mi SE 9.2 mph - N/A   Clear
12:35 PM 74.1 °F 50.9 °F 44% 30.21 in 10.0 mi East 8.1 mph - N/A   Clear
12:54 PM 74.5 °F 49.6 °F 42% 30.22 in 10.0 mi ESE 8.1 mph - N/A   Clear
1:15 PM 75.6 °F 49.1 °F 39% 30.21 in 10.0 mi ESE 5.8 mph - N/A   Clear
1:34 PM 76.1 °F 49.5 °F 39% 30.21 in 10.0 mi SE 3.5 mph - N/A   Clear
1:55 PM 76.1 °F 50.0 °F 40% 30.20 in 10.0 mi ESE 4.6 mph - N/A   Clear
2:15 PM 77.0 °F 51.1 °F 40% 30.19 in 10.0 mi South 3.5 mph - N/A   Clear
2:34 PM 77.7 °F 49.3 °F 37% 30.18 in 10.0 mi SE 8.1 mph - N/A   Clear
2:55 PM 78.4 °F 48.7 °F 35% 30.17 in 10.0 mi South 8.1 mph - N/A   Clear
3:15 PM 77.9 °F 49.1 °F 36% 30.17 in 10.0 mi ESE 10.4 mph - N/A   Clear
3:34 PM 78.8 °F 49.5 °F 36% 30.16 in 10.0 mi East 6.9 mph - N/A   Clear
3:55 PM 78.6 °F 50.5 °F 37% 30.16 in 10.0 mi SE 10.4 mph - N/A   Clear
4:15 PM 79.0 °F 49.5 °F 35% 30.15 in 10.0 mi ESE 9.2 mph - N/A   Clear
4:34 PM 78.8 °F 50.0 °F 36% 30.15 in 10.0 mi SE 8.1 mph - N/A   Clear
4:55 PM 78.8 °F 49.6 °F 36% 30.14 in 10.0 mi SE 10.4 mph - N/A   Clear
5:15 PM 77.9 °F 49.8 °F 37% 30.14 in 10.0 mi ESE 4.6 mph - N/A   Clear
5:35 PM 78.4 °F 50.0 °F 37% 30.13 in 10.0 mi SE 10.4 mph - N/A   Clear
5:55 PM 77.9 °F 49.5 °F 37% 30.14 in 10.0 mi ESE 8.1 mph - N/A   Clear
6:15 PM 77.0 °F 50.9 °F 40% 30.14 in 10.0 mi SE 6.9 mph - N/A   Clear
6:35 PM 76.6 °F 50.4 °F 40% 30.14 in 10.0 mi ESE 9.2 mph - N/A   Clear
6:55 PM 75.7 °F 50.5 °F 41% 30.14 in 10.0 mi ESE 6.9 mph - N/A   Clear
7:14 PM 74.3 °F 51.3 °F 44% 30.14 in 10.0 mi East 5.8 mph - N/A   Clear
7:35 PM 72.1 °F 51.8 °F 49% 30.14 in 10.0 mi ESE 4.6 mph - N/A   Clear
7:55 PM 70.0 °F 51.8 °F 52% 30.14 in 10.0 mi ESE 6.9 mph - N/A   Clear
8:14 PM 69.4 °F 51.6 °F 53% 30.14 in 10.0 mi East 6.9 mph - N/A   Clear
8:35 PM 69.3 °F 50.7 °F 52% 30.14 in 10.0 mi ESE 8.1 mph - N/A   Clear
8:55 PM 68.4 °F 50.2 °F 52% 30.15 in 10.0 mi ESE 8.1 mph - N/A   Clear
9:14 PM 66.6 °F 50.5 °F 56% 30.15 in 10.0 mi ESE 5.8 mph - N/A   Clear
9:35 PM 65.7 °F 50.9 °F 59% 30.16 in 10.0 mi ESE 8.1 mph - N/A   Clear
9:54 PM 64.9 °F 51.1 °F 61% 30.16 in 10.0 mi ESE 8.1 mph - N/A   Clear
10:15 PM 64.4 °F 51.8 °F 64% 30.16 in 10.0 mi ESE 8.1 mph - N/A   Clear
10:35 PM 63.5 °F 52.3 °F 67% 30.16 in 10.0 mi ESE 6.9 mph - N/A   Clear
10:54 PM 62.8 °F 53.1 °F 71% 30.17 in 10.0 mi ESE 8.1 mph - N/A   Clear
11:15 PM 62.1 °F 53.6 °F 74% 30.17 in 10.0 mi ESE 9.2 mph - N/A   Clear
11:35 PM 61.7 °F 53.6 °F 75% 30.17 in 10.0 mi ESE 5.8 mph - N/A   Clear
11:55 PM 60.6 °F 53.1 °F 76% 30.17 in 10.0 mi ESE 4.6 mph - N/A   Clear